CDT,Max TemperatureF,Mean TemperatureF,Min TemperatureF,Max Dew PointF,MeanDew PointF,Min DewpointF,Max Humidity, Mean Humidity, Min Humidity, Max Sea Level PressureIn, Mean Sea Level PressureIn, Min Sea Level PressureIn, Max VisibilityMiles, Mean VisibilityMiles, Min VisibilityMiles, Max Wind SpeedMPH, Mean Wind SpeedMPH, Max Gust SpeedMPH,PrecipitationIn, CloudCover, Events, WindDirDegrees
2012-10-1,66,50,35,46,36,27,100,64,28,30.26,30.12,29.77,10,10,6,17,7,23,0.00,0,,218
2012-10-2,69,56,44,39,34,27,66,41,28,29.87,29.72,29.61,10,10,9,18,11,25,0.00,0,,290
2012-10-3,48,42,35,39,37,34,100,92,66,30.34,30.08,29.89,10,7,2,21,12,29,1.28,7,Rain-Snow,8
2012-10-4,41,34,28,36,29,25,100,79,53,30.38,30.36,30.33,10,10,9,15,10,21,0.00,5,Rain,324
2012-10-5,39,32,24,25,21,18,93,69,42,30.40,30.37,30.34,10,10,10,20,8,23,0.00,3,,320
2012-10-6,46,32,19,25,22,18,100,70,34,30.40,30.29,30.07,10,10,10,17,5,22,0.00,1,,236
2012-10-7,53,40,26,39,29,23,86,66,38,30.06,29.87,29.63,10,10,9,13,7,20,0.00,3,Rain,254
2012-10-8,51,43,35,41,34,25,87,64,49,29.85,29.72,29.59,10,10,10,23,13,33,0.01,6,Rain,302
2012-10-9,42,35,28,28,25,19,80,67,42,30.04,29.99,29.85,10,10,10,20,11,28,0.05,6,Rain,295
2012-10-10,53,40,26,36,29,23,86,70,44,30.06,29.91,29.79,10,10,10,16,7,22,0.00,6,Rain,310
2012-10-11,39,34,28,32,26,19,100,76,45,30.33,30.24,30.07,10,10,7,17,8,22,0.00,6,Rain-Snow,2
2012-10-12,62,48,33,36,30,25,87,61,32,30.19,29.85,29.62,10,10,9,16,11,24,0.00,1,,179
2012-10-13,59,46,32,37,34,30,100,71,42,29.94,29.76,29.61,10,10,10,13,4,17,0.00,1,,284
2012-10-14,66,47,28,39,34,28,100,70,30,29.96,29.92,29.82,10,10,9,14,3,18,0.00,2,Rain,259
2012-10-15,73,60,48,48,40,36,88,52,29,29.81,29.67,29.61,10,10,9,23,8,26,0.00,2,,246
2012-10-16,60,50,39,52,45,39,100,86,52,29.63,29.41,29.23,10,10,3,24,8,38,0.06,3,Rain,228
2012-10-17,48,44,39,43,33,27,100,66,43,29.64,29.46,29.25,10,10,2,40,26,53,0.13,6,Rain,298
2012-10-18,41,40,39,36,33,32,87,77,70,30.04,29.88,29.64,10,10,6,38,26,50,0.00,8,Rain,325
2012-10-19,50,37,24,32,29,25,100,72,43,30.00,29.78,29.55,10,10,10,13,6,,0.00,2,,142
2012-10-20,66,49,32,37,34,28,93,63,34,29.66,29.52,29.48,10,10,10,14,4,22,0.00,1,Rain,240
2012-10-21,53,44,35,37,31,25,87,63,40,30.03,29.90,29.67,10,10,3,10,6,17,0.00,2,,331
2012-10-22,41,38,35,37,34,30,100,85,70,30.04,29.96,29.76,10,10,4,17,8,24,0.00,7,Rain,109
2012-10-23,41,37,32,41,36,25,100,90,60,29.85,29.72,29.62,10,8,0,18,10,24,0.00,7,Fog-Rain,269
2012-10-24,33,30,26,25,23,19,80,73,65,30.08,30.03,30.00,10,10,10,20,15,28,0.00,6,,280
2012-10-25,32,30,28,23,22,19,80,71,60,30.29,30.17,30.09,10,10,10,23,16,32,0.00,8,,300
2012-10-26,32,26,21,23,17,10,86,67,41,30.34,30.29,30.22,10,10,9,17,12,25,0.02,8,Rain-Snow,288
2012-10-27,28,24,19,25,23,18,100,86,74,30.22,30.20,30.18,10,9,2,9,4,,0.14,8,Rain-Snow,90
2012-10-28,32,28,24,32,27,19,100,91,80,30.19,30.05,29.95,10,8,2,18,9,24,0.06,8,Rain-Snow,125
2012-10-29,39,32,28,36,32,28,100,99,87,29.98,29.96,29.94,10,4,1,10,6,,0.00,6,,123
2012-10-30,59,46,33,41,38,32,100,76,51,29.96,29.94,29.92,10,10,10,10,5,,0.00,0,,259
2012-10-31,41,34,28,39,33,28,100,94,81,30.13,30.03,29.90,10,10,8,17,4,25,0.00,6,,7